Regional Weather Roundup
Issued by NWS

Home | Current Version | Previous Version | Graphics & Text | Print | Product List | Glossary On
Versions: 1 2 3 4 5 6 7 8 9 10 11 12 13 14 15 16 17 18 19 20 21 22 23 24 25 26 27 28 29 30 31 32 33 34 35 36 37 38 39 40 41 42 43 44 45 46 47 48 49 50
000
ASUS43 KDMX 301501
RWRIA

WEATHER ROUNDUP FOR IOWA
NATIONAL WEATHER SERVICE DES MOINES IA
1000 AM CDT THU MAR 30 2017

NOTE: "FAIR" INDICATES FEW OR NO CLOUDS BELOW 12,000 FEET WITH NO
SIGNIFICANT WEATHER AND/OR OBSTRUCTIONS TO VISIBILITY.

* - THESE STATIONS ARE NOT NWS STATIONS...THUS NOT UNDER NWS
QUALITY CONTROL.  THEY ALSO DO NOT REPORT WEATHER SUCH
AS PRECIPITATION OR FOG.

IAZ001>003-012>014-020>022-031>034-043>046-301600-
   NORTHWEST IOWA

CITY           SKY/WX    TMP DP  RH WIND       PRES   REMARKS
CARROLL *      CLOUDY    39  39 100 NE20G26   29.73S FOG     WCI  30
ORANGE CITY *  CLOUDY    37  37 100 NE12G17   29.80F FOG     WCI  30
SIOUX CITY     CLOUDY    39  38  96 NE14      29.79F WCI  31
SPENCER        CLOUDY    38  36  92 NE18      29.81F WCI  28
STORM LAKE *   CLOUDY    37  37 100 NE18      29.77S FOG     WCI  27
$$

IAZ055>058-069>071-079>083-090>094-301600-
   SOUTHWEST IOWA

CITY           SKY/WX    TMP DP  RH WIND       PRES   REMARKS
CLARINDA *     CLOUDY    43  43 100 NE17G26   29.67S FOG
COUNCIL BLFS * CLOUDY    41  41 100 N16G22    29.70S
HARLAN  *      CLOUDY    41  41 100 NE22G28   29.73F
LAMONI         FOG       43  43 100 N16       29.60F VSB 3/4
RED OAK *      CLOUDY    43  41  93 NE18G25   29.67F
$$

IAZ047>049-059>061-072>074-084-301600-
   CENTRAL IOWA

CITY           SKY/WX    TMP DP  RH WIND       PRES   REMARKS
AMES           CLOUDY    41  41 100 NE15G22   29.71F FOG
CHARITON *     LGT RAIN  43  43 100 NE15      29.62F VSB 1/2
GRINNELL*      CLOUDY    41  40  95 NE15      29.68R FOG
MARSHALLTOWN   CLOUDY    41  40  96 NE20      29.69F FOG
NEWTON *       CLOUDY    41  41 100 NE14G20   29.67R
PELLA *        CLOUDY    42  42  98 NE8       29.67R FOG
PERRY *        CLOUDY    42  41  96 NE15      29.71S FOG
$$

IAZ004>006-015-016-023>025-035-036-301600-
   NORTH CENTRAL IOWA

CITY           SKY/WX    TMP DP  RH WIND       PRES   REMARKS
CLARION *      CLOUDY    39  39 100 NE17      29.75F FOG     WCI  30
ESTHERVILLE      N/A    N/A N/A N/A MISG      29.81F
FORT DODGE *   CLOUDY    37  34  87 NE10      29.76F WCI  30
MASON CITY     CLOUDY    38  36  92 NE17      29.78F FOG     WCI  28
IOWA FALLS *   DRIZZLE   40  38  96 NE13G21   29.74F WCI  32
$$

IAZ007>011-017>019-026>030-037>042-050>054-066-301600-
   NORTHEAST IOWA

CITY           SKY/WX    TMP DP  RH WIND       PRES   REMARKS
CEDAR RAPIDS   CLOUDY    42  42 100 NE18      29.63F
CHARLES CITY * CLOUDY    39  39 100 NE16G23   29.76F FOG     WCI  30
CLINTON *      CLOUDY    43  42  97 E24       29.63F
DUBUQUE        LGT RAIN  39  38  96 NE14G28   29.71F WCI  31
OELWEIN *      CLOUDY    39  39 100 NE21G26   29.73S WCI  29
$$

IAZ064-065-067-068-078-301600-
   EAST CENTRAL IOWA

CITY           SKY/WX    TMP DP  RH WIND       PRES   REMARKS
DAVENPORT      CLOUDY    44  42  93 E18G32    29.62F
IOWA CITY      CLOUDY    45  41  86 E12       29.66F
QUAD CITIES    CLOUDY    45  42  89 E17       29.61F
$$

IAZ062-063-075>077-085>089-095>099-301600-
   SOUTHEAST IOWA

CITY           SKY/WX    TMP DP  RH WIND       PRES   REMARKS
BURLINGTON     CLOUDY    47  47 100 NE8       29.59F
FORT MADISON * CLOUDY    48  46  93 E12       29.58F FOG
OSKALOOSA *    CLOUDY    43  42  97 NE17      29.61F FOG
OTTUMWA        CLOUDY    45  45 100 NE14      29.60F FOG
$$

ABBREVIATIONS USED IN REMARKS
   TC - TEMPERATURES IN CELSIUS
  WCI - WIND CHILL INDEX
   HX - HEAT INDEX
  VSB - VISIBILITY
$$





USA.gov is the U.S. government's official web portal to all federal, state and local government web resources and services.